Location: Newark
(7.1028°S, 35.3258°W)
Time: 14:38:59
(UTC+00:00)

Hubble Space Telescope - Pass Details

Date: 25 January 2020
Orbit: 536 x 540 km, 28.5° (Epoch: 28 February)

Event Time Altitude Azimuth Distance (km) Brightness Sun altitude
Exits shadow 06:20:05 16° 53° (NE) 1,431 3.2 -28.4°
Drops below altitude 10° 06:20:58 10° 55° (NE) 1,774 3.7 -28.2°
Sets 06:23:14 0° 57° (ENE) 2,662 4.7 -27.7°
